2017-071J

Last updated on Wed Jan 17 2018 00:19:53 GMT+0000 (Coordinated Universal Time)

1 43045U 17071J 18015.57615464 .00005382 00000-0 15023-3 0 9997 2 43045 51.6401 64.2742 0005031 61.4867 298.6623 15.38366201 6132
UTC large
Height (km)
Speed (km/s)
/
Latitude / Longitude
Inclination (degrees)
Orbital Period (minutes)
Azimuth
Elevation
Range (km)
Doppler Factor

Next 0 passes for location: London (51.5072 / 0.1276)

Sorry there are no passes over London.